Find Starlink 31779

NORAD ID: 59744 Int'l Des: 2024-090 Owner: SPXS Country: US Constellation: starlink operational
LEOCIRCULAR

Live Position

Loading 3D Globe...

About Starlink 31779

Description loading...

Upcoming Passes

Passes for default location (London). Set your location on the main map for personalized predictions.

Altitude History

Loading altitude history...

Two-Line Element Set

1 59744U 24090Q 26124.34082376 .00002365 00000-0 95439-4 0 9992
2 59744 42.9993 229.0042 0000602 259.7161 100.3623 15.27579600111959
Epoch: May 4, 2026 • Age: 21 hours

Current Status

Altitude 486.3 km
Velocity 7.63 km/s
Sub-Earth Point 41.73°N, 0.65°W
Launch Date May 13, 2024
Age 1.9 years
Type internet

Technical Details

Classification Payload
Mass 730.00 kg
Dry Mass 700.00 kg
Total Mass 730.00 kg
Length 0.30 m
Diameter 4.10 m
Span 29.00 m
Shape Box + pan
Manufacturer SPXS
Bus Type Starlink V2M
Phase Status In Orbit
Owner/State SPXS/US

Most Searched